STARLINK-34512 (64419 NORAD) Tracking and Keplerian Element Data

This shows tracking and keplerian element data for the satellite.

Feedback or suggestion? Click here.




ElementValue
Catalog64419
NameSTARLINK-34512
Epoch Orbit2931
Epoch Day354.1710927
Epoch Year2025
RAAN275.0491
Inclination70.0026
Eccentricity0.0002178
Argument of Perigee289.256
Mean Anonmoly70.8364
Mean Motion14.98323141
Decay Rate6.51E-05
L11 64419U 25129H 25354.17109270 .00006510 00000+0 55299-3 0 9993
L22 64419 70.0026 275.0491 0002178 289.2560 70.8364 14.98323141 29318



Live tracking and technical data element details for STARLINK-34512 (NORAD 64419). STARLINK-34512 can be tracked NOW for your location showing map with azimuth and elevation plus other details from your city location.







IsCatalogInMostPopularTable: catalog: 64419, numindb: 5
Update: records affected: 1



GetName: 64419 STARLINK-34512

Hit Count: updated at: Tue, 10 Feb 2026 03:53:26 GMT